Cumberland, WV

1:22 AM EDT on August 20, 2017 (GMT -0400)
Greater Cumberland Regional

Weather History for KCBE - July, 2013

Change the Weather History Date:

Friday, July 12, 2013

  Actual Average (KMRB) Record (KMRB)
Temperature  
Mean Temperature 68 °F -  
Max Temperature 73 °F 86 °F 106 °F (1936)
Min Temperature 64 °F 63 °F 47 °F (1926)
Cooling Degree Days 4    
Growing Degree Days 18 (Base 50)    
Moisture  
Dew Point 64 °F    
Average Humidity 86    
Maximum Humidity 100    
Minimum Humidity 69    
Precipitation  
Precipitation 0.00 in - - ()
Sea Level Pressure  
Sea Level Pressure 30.08 in    
Wind  
Wind Speed 2 mph (North)    
Max Wind Speed 8 mph    
Max Gust Speed -    
Visibility 8 miles    
Events      
Averages and records for this station are not official NWS values.
T = Trace of Precipitation, MM = Missing Value Source: NWS Daily Summary

Daily Weather History Graph

Daily Weather History Graph

Search for Another Location

Airport or City:

Trip Planner

Search our weather history database for the weather conditions in past years. The results will help you decide how hot, cold, wet, or windy it might be!

Date:

Astronomy

Jul. 12, 2013 Rise Set
Actual Time 5:57 AM EDT 8:43 PM EDT
Civil Twilight 5:26 AM EDT 9:14 PM EDT
Nautical Twilight 4:46 AM EDT 9:54 PM EDT
Astronomical Twilight 4:00 AM EDT 10:39 PM EDT
Moon 10:11 AM EDT (7/12) 10:53 PM EDT (7/12)
Length of Visible Light 15h 48m
Length of Day
14h 45m
Waxing Crescent, 17% of the Moon is Illuminated
Jul 12
Waxing Crescent
Jul 15
First Quarter
Jul 22
Full
Jul 29
Last Quarter
Aug 6
New

Hourly Weather History & Observations

Time (EDT) Temp. Dew Point Humidity Pressure Visibility Wind Dir Wind Speed Gust Speed Precip Events Conditions
12:16 AM 66.2 °F 64.4 °F 94% 30.04 in 4.0 mi Calm Calm - N/A   Overcast
12:36 AM 64.4 °F 64.4 °F 100% 30.03 in 4.0 mi Calm Calm - N/A   Overcast
12:56 AM 64.4 °F 64.4 °F 100% 30.02 in 3.0 mi NNW 3.5 mph - N/A   Unknown
1:16 AM 64.4 °F 64.4 °F 100% 30.02 in 10.0 mi ENE 3.5 mph - N/A   Clear
1:36 AM 64.4 °F 64.4 °F 100% 30.04 in 5.0 mi Calm Calm - N/A   Scattered Clouds
1:56 AM 64.4 °F 64.4 °F 100% 30.04 in 4.0 mi Calm Calm - N/A   Scattered Clouds
2:16 AM 64.4 °F 64.4 °F 100% 30.04 in 2.5 mi SW 3.5 mph - N/A   Overcast
2:37 AM 64.4 °F 64.4 °F 100% 30.05 in 3.0 mi SSE 4.6 mph - N/A   Overcast
2:57 AM 64.4 °F 64.4 °F 100% 30.05 in 2.5 mi Calm Calm - N/A   Overcast
3:17 AM 64.4 °F 64.4 °F 100% 30.04 in 3.0 mi Calm Calm - N/A   Unknown
3:37 AM 64.4 °F 62.6 °F 94% 30.03 in 7.0 mi North 3.5 mph - N/A   Clear
3:57 AM 64.4 °F 62.6 °F 94% 30.03 in 7.0 mi Calm Calm - N/A   Clear
4:17 AM 64.4 °F 62.6 °F 94% 30.03 in 7.0 mi Calm Calm - N/A   Clear
4:37 AM 64.4 °F 62.6 °F 94% 30.03 in 10.0 mi Calm Calm - N/A   Clear
4:57 AM 64.4 °F 62.6 °F 94% 30.03 in 7.0 mi Calm Calm - N/A   Scattered Clouds
5:17 AM 64.4 °F 62.6 °F 94% 30.02 in 5.0 mi NW 3.5 mph - N/A   Mostly Cloudy
5:37 AM 64.4 °F 62.6 °F 94% 30.02 in 4.0 mi NNW 4.6 mph - N/A   Scattered Clouds
5:57 AM 64.4 °F 62.6 °F 94% 30.03 in 7.0 mi Calm Calm - N/A   Scattered Clouds
6:17 AM 64.4 °F 62.6 °F 94% 30.04 in 7.0 mi Calm Calm - N/A   Clear
6:37 AM 64.4 °F 62.6 °F 94% 30.04 in 5.0 mi Calm Calm - N/A   Scattered Clouds
6:57 AM 64.4 °F 62.6 °F 94% 30.04 in 5.0 mi NNW 3.5 mph - N/A   Scattered Clouds
7:17 AM 64.4 °F 62.6 °F 94% 30.05 in 7.0 mi Calm Calm - N/A   Clear
7:37 AM 64.4 °F 62.6 °F 94% 30.06 in 10.0 mi NNW 3.5 mph - N/A   Clear
7:57 AM 64.4 °F 60.8 °F 88% 30.07 in 10.0 mi Calm Calm - N/A   Clear
8:17 AM 64.4 °F 60.8 °F 88% 30.08 in 10.0 mi Calm Calm - N/A   Clear
8:37 AM 66.2 °F 60.8 °F 83% 30.08 in 10.0 mi Calm Calm - N/A   Clear
8:57 AM 66.2 °F 60.8 °F 83% 30.08 in 10.0 mi Calm Calm - N/A   Clear
9:17 AM 68.0 °F 60.8 °F 78% 30.08 in 10.0 mi Calm Calm - N/A   Clear
9:37 AM 68.0 °F 60.8 °F 78% 30.09 in 10.0 mi Calm Calm - N/A   Clear
9:57 AM 69.8 °F 60.8 °F 73% 30.09 in 10.0 mi NNW 3.5 mph - N/A   Clear
10:17 AM 69.8 °F 60.8 °F 73% 30.09 in 10.0 mi North 3.5 mph - N/A   Clear
10:37 AM 69.8 °F 60.8 °F 73% 30.09 in 10.0 mi North 5.8 mph - N/A   Clear
10:58 AM 69.8 °F 60.8 °F 73% 30.09 in 10.0 mi North 8.1 mph - N/A   Clear
11:18 AM 69.8 °F 60.8 °F 73% 30.10 in 10.0 mi NNE 4.6 mph - N/A   Scattered Clouds
11:38 AM 69.8 °F 60.8 °F 73% 30.10 in 10.0 mi NNE 3.5 mph - N/A   Mostly Cloudy
11:58 AM 69.8 °F 62.6 °F 78% 30.11 in 10.0 mi Calm Calm - N/A   Mostly Cloudy
12:18 PM 69.8 °F 62.6 °F 78% 30.11 in 7.0 mi Calm Calm - N/A   Mostly Cloudy
12:38 PM 69.8 °F 62.6 °F 78% 30.11 in 10.0 mi Calm Calm - N/A   Mostly Cloudy
12:58 PM 69.8 °F 60.8 °F 73% 30.10 in 10.0 mi North 4.6 mph - N/A   Mostly Cloudy
1:18 PM 69.8 °F 62.6 °F 78% 30.11 in 10.0 mi North 5.8 mph - N/A   Scattered Clouds
1:38 PM 69.8 °F 62.6 °F 78% 30.11 in 10.0 mi North 6.9 mph - N/A   Scattered Clouds
1:58 PM 69.8 °F 62.6 °F 78% 30.11 in 10.0 mi North 4.6 mph - N/A   Scattered Clouds
2:18 PM 71.6 °F 62.6 °F 73% 30.10 in 10.0 mi Calm Calm - N/A   Scattered Clouds
2:38 PM 71.6 °F 62.6 °F 73% 30.10 in 10.0 mi ENE 5.8 mph - N/A   Scattered Clouds
2:58 PM 71.6 °F 62.6 °F 73% 30.09 in 10.0 mi North 4.6 mph - N/A   Scattered Clouds
3:18 PM 71.6 °F 62.6 °F 73% 30.09 in 10.0 mi NE 6.9 mph - N/A   Clear
3:38 PM 73.4 °F 62.6 °F 69% 30.09 in 10.0 mi North 6.9 mph - N/A   Clear
3:58 PM 73.4 °F 62.6 °F 69% 30.08 in 10.0 mi North 6.9 mph - N/A   Scattered Clouds
4:18 PM 73.4 °F 62.6 °F 69% 30.09 in 10.0 mi NNE 6.9 mph - N/A   Scattered Clouds
4:38 PM 73.4 °F 62.6 °F 69% 30.08 in 10.0 mi NNE 6.9 mph - N/A   Clear
4:58 PM 71.6 °F 62.6 °F 73% 30.09 in 10.0 mi NNE 3.5 mph - N/A   Scattered Clouds
5:18 PM 71.6 °F 62.6 °F 73% 30.09 in 10.0 mi Calm Calm - N/A   Mostly Cloudy
5:38 PM 71.6 °F 62.6 °F 73% 30.09 in 10.0 mi Calm Calm - N/A   Overcast
5:58 PM 71.6 °F 62.6 °F 73% 30.09 in 10.0 mi Calm Calm - N/A   Overcast
6:18 PM 73.4 °F 64.4 °F 73% 30.08 in 10.0 mi Calm Calm - N/A   Mostly Cloudy
6:38 PM 73.4 °F 64.4 °F 73% 30.09 in 10.0 mi Calm Calm - N/A   Mostly Cloudy
6:58 PM 73.4 °F 64.4 °F 73% 30.09 in 10.0 mi Calm Calm - N/A   Mostly Cloudy
7:18 PM 73.4 °F 64.4 °F 73% 30.09 in 10.0 mi Calm Calm - N/A   Mostly Cloudy
7:38 PM 71.6 °F 64.4 °F 78% 30.10 in 10.0 mi Calm Calm - N/A   Overcast
7:59 PM 69.8 °F 66.2 °F 88% 30.11 in 4.0 mi Calm Calm - N/A   Overcast
8:19 PM 69.8 °F 66.2 °F 88% 30.11 in 10.0 mi Calm Calm - N/A   Mostly Cloudy
8:39 PM 69.8 °F 66.2 °F 88% 30.11 in 10.0 mi Calm Calm - N/A   Mostly Cloudy
8:59 PM 69.8 °F 66.2 °F 88% 30.10 in 7.0 mi Calm Calm - N/A   Mostly Cloudy
9:19 PM 69.8 °F 68.0 °F 94% 30.11 in 10.0 mi Calm Calm - N/A   Mostly Cloudy
9:39 PM 69.8 °F 68.0 °F 94% 30.12 in 7.0 mi Calm Calm - N/A   Mostly Cloudy
9:59 PM 69.8 °F 68.0 °F 94% 30.12 in 7.0 mi Calm Calm - N/A   Mostly Cloudy
10:19 PM 68.0 °F 68.0 °F 100% 30.12 in 4.0 mi Calm Calm - N/A   Mostly Cloudy
10:39 PM 68.0 °F 68.0 °F 100% 30.13 in 5.0 mi Calm Calm - N/A   Mostly Cloudy
10:59 PM 68.0 °F 68.0 °F 100% 30.13 in 4.0 mi Calm Calm - N/A   Mostly Cloudy
11:19 PM 68.0 °F 68.0 °F 100% 30.14 in 4.0 mi Calm Calm - N/A   Mostly Cloudy
11:39 PM 68.0 °F 68.0 °F 100% 30.14 in 5.0 mi Calm Calm - N/A   Overcast
11:59 PM 68.0 °F 68.0 °F 100% 30.14 in 1.5 mi Calm Calm - N/A   Overcast